Location: Antioch
(38.0049°N, 121.8058°W)
Time: 23:44:33
(UTC+00:00)

Cosmos 1354 Rocket - Pass Details

Date: 23 May 2026
Orbit: 761 x 778 km, 74.0° (Epoch: 7 June)

Event Time Altitude Azimuth Distance (km) Brightness Sun altitude
Rises 05:29:39 0° 336° (NNW) 3,233 8.6 -21.1°
Reaches altitude 10° 05:32:04 10° 332° (NNW) 2,301 7.6 -21.4°
Maximum altitude 05:37:08 54° 256° (WSW) 923 4.5 -22.0°
Enters shadow 05:39:02 35° 199° (SSW) 1,215 4.7 -22.2°
